Regional Weather Roundup
Issued by NWS

Home | Current Version | Previous Version | Text Only | Print | Product List | Glossary Off
Versions: 1 2 3 4 5 6 7 8 9 10 11 12 13 14 15 16 17 18 19 20 21 22 23 24 25 26 27 28

000
ASUS45 KSLC 191710
RWRUT

UTAH REGIONAL WEATHER ROUNDUP
NATIONAL WEATHER SERVICE SALT LAKE CITY UT
1000 AM MST FRI JAN 19 2018

UTZ001>011-023>025-191800-

NORTHERN UTAH

CITY           SKY/WX    TMP DP  RH WIND       PRES   REMARKS
BRIGHAM CITY   CLOUDY    42  31  64 NW3       29.82R
HILL AFB       CLOUDY    46  29  51 N3        29.82R
LOGAN          CLOUDY    42  32  67 N14       29.81R
OGDEN          CLOUDY    45  31  58 CALM      29.81R
SALT LAKE CITY CLOUDY    58  29  33 S18G36    29.79S
TOOELE VALLEY  CLOUDY    55  32  41 S23G31    29.81R
WENDOVER       PTSUNNY   39  28  64 MISG      29.82R
HEBER CITY       N/A     50  27  40 SW22G28   29.85S
WEST JORDAN    CLOUDY    52  31  44 SE22      29.82R

$$

UTZ011>015-024>027-191800-

CENTRAL/NORTHEAST UTAH

CITY           SKY/WX    TMP DP  RH WIND       PRES   REMARKS
PROVO AIRPORT  CLOUDY    51  30  44 NE8       29.87R
MOAB/CANYONLAN CLOUDY    33  24  69 CALM      30.02R
DELTA          CLOUDY    45  28  53 S17G23    29.89S
PRICE          CLOUDY    34  21  59 CALM      30.02R
RICHFIELD      SUNNY     54  25  32 SW18G26   29.91R
ROOSEVELT      CLOUDY    28  21  74 CALM      30.02R
VERNAL         CLOUDY    29  19  66 CALM      29.98S

$$

UTZ013>016-019>022-027-191800-

SOUTHERN UTAH

CITY           SKY/WX    TMP DP  RH WIND       PRES   REMARKS
BRYCE CANYON   PTSUNNY   36  24  62 SE6       30.07R WCI  31
CEDAR CITY     PTSUNNY   50  27  40 SW22G30   29.95R
MILFORD        CLOUDY    50  28  42 S23G32    29.90S
ST GEORGE      CLOUDY    46  34  62 CALM      30.00F
HANKSVILLE     CLOUDY    30  16  55 CALM      30.05S
KANAB          SUNNY     41  27  56 NE2       30.10S
BLANDING         N/A     40  20  44 SE5       30.20R

$$

REGIONAL REPORTS     COLORADO/ARIZONA

CITY           SKY/WX    TMP DP  RH WIND       PRES   REMARKS
CRAIG, CO      PTSUNNY   26  16  65 CALM      29.95S
GRAND JUNCTION MOSUNNY   34  20  56 CALM      30.04S
RIFLE, CO      SUNNY     28  20  71 W5        30.05F WCI  23
MONTROSE, CO   MOSUNNY   38  17  42 SE5       30.08R WCI  34
CORTEZ, CO     MOSUNNY   41  24  51 E5        30.12S
COLORADO CITY    N/A     52  27  37 E8        30.07S
PAGE, AZ       MOSUNNY   42  25  50 CALM      30.06F
GRAND CANYON   SUNNY     46  18  32 S12       30.12F
KINGMAN, AZ    SUNNY     61  24  24 CALM      30.02R
FLAGSTAFF, AZ  SUNNY     43  19  38 SW12      30.16R

$$

REGIONAL REPORTS    NEVADA/IDAHO/WYOMING

CITY           SKY/WX    TMP DP  RH WIND       PRES   REMARKS
LAS VEGAS, NV  PTSUNNY   58  37  45 CALM      29.93S
ELY, NY        CLOUDY    44  28  53 SE16G23   29.88S
ELKO, NV       CLOUDY    35  32  88 SW9       29.91R WCI  28
POCATELLO, ID  LGT RAIN  36  34  92 S6        29.85R WCI  31
BURLEY, ID     LGT RAIN  39  35  86 SW8       29.84R WCI  33
FORT BRIDGER,    N/A     50  27  40 W22G30    29.84S
EVANSTON, WY   CLOUDY    43  28  55 SW20G28   29.84R
ROCK SPRINGS,  MOSUNNY   40  22  48 S6        29.83R

$$




USA.gov is the U.S. government's official web portal to all federal, state and local government web resources and services.